COSMOS 1130

导读

COSMOS 1130(宇宙1130)是独联体(CIS)继承自苏联航天体系的一颗军用侦察卫星,于1979年9月25日08:00发射入轨,隶属于苏联“宇宙”系列卫星家族。该系列卫星承担了苏联时期大量军事侦察、空间技术试验任务,是冷战时期航天军事化应用的典型代表,服役期间完成了既定战略观测任务,最终完成使命后脱离轨道陨落,见证了20世纪后半叶人类航天探索与航天竞争的历史。

Basic Information
目录编号:
11538
目录名称:
COSMOS 1130
国际标识:
1979-084A
轨道中心:
EARTH
卫星名称:
COSMOS 1130
卫星全名:
--
卫星状态:
在轨 (已飞行17065 天)
发射日期:
1979-09-25 UTC
国别 :
俄罗斯(独联体) (CIS)
星等 :
--
Orbit Information
数据来源 国际轨道数据 AOE轨道数据
星历时间 2026-06-15T07:45:50+0800
7小时前
查看轨道信息
2026-06-10T02:00:00+0800
5天前
查看轨道信息
半长轴 7816.511km 7816.51km
偏心率 0.0052427 0.0052443
轨道倾角 74.026° 74.025°
近地点辐角 90.500° 98.556°
升交点赤经 62.599° 69.647°
平近点角 281.646° 342.520°
近地点 1397.394km 1397.38km
远地点 1479.354km 1479.366km
周期 114.625分钟 114.625分钟
每日圈数 12.562712 12.562713
Detailed Information
使用方式:
暂无
2D Orbit Map
3D Orbit Map
Orbit Altitude Analysis Chart
Orbit Inclination Analysis Chart
Orbit Comprehensive Analysis Chart
View Comprehensive Chart